This is the latest recevied weather packets stored in our database for station/object KO4FQW-11. If no packets are shown the sender has not sent any weather packets the latest 10 day(s).
| Time | Temp. | Humidity | Pressure | Rain* | Wind** | Luminosity | Snow |
|---|---|---|---|---|---|---|---|
| 1788577282 | 25.56° C | 61% | 1013 hPa | 0 mm | - | - | - |
| 1788577047 | 26.67° C | 56% | 1012 hPa | 0 mm | - | - | - |
| 1788576322 | 26.67° C | 56% | 1012 hPa | 0 mm | - | - | - |
| 1788575362 | 26.67° C | 56% | 1012 hPa | 0 mm | - | - | - |
| 1788574405 | 26.67° C | 56% | 1012 hPa | 0 mm | - | - | - |
| 1788573442 | 27.78° C | 55% | 1011 hPa | 0 mm | - | - | - |
| 1788572482 | 27.78° C | 55% | 1011 hPa | 0 mm | - | - | - |
| 1788571522 | 27.78° C | 55% | 1011 hPa | 0 mm | - | - | - |
| 1788570561 | 27.78° C | 55% | 1011 hPa | 0 mm | - | - | - |
| 1788569601 | 27.78° C | 55% | 1011 hPa | 0 mm | - | - | - |
| 1788568642 | 27.78° C | 55% | 1011 hPa | 0 mm | - | - | - |
| 1788568002 | 27.78° C | 55% | 1011 hPa | 0 mm | - | - | - |
| 1788567682 | 27.78° C | 55% | 1011 hPa | 0 mm | - | - | - |
| 1788566722 | 27.78° C | 55% | 1011 hPa | 0 mm | - | - | - |
| 1788565761 | 31.67° C | 49% | 1011 hPa | 0 mm | - | - | - |
| 1788565145 | 31.67° C | 49% | 1011 hPa | 0 mm | - | - | - |
| 1788564802 | 31.67° C | 49% | 1011 hPa | 0 mm | - | - | - |
| 1788563844 | 31.67° C | 49% | 1011 hPa | 0 mm | - | - | - |
| 1788562882 | 31.67° C | 49% | 1011 hPa | 0 mm | - | - | - |
| 1788550895 | 33.33° C | 51% | 1012 hPa | 1.78 mm | - | - | - |
| 1788549936 | 33.33° C | 51% | 1012 hPa | 1.78 mm | - | - | - |
| 1788548976 | 32.78° C | 55% | 1013 hPa | 1.78 mm | - | - | - |
| 1788548017 | 32.78° C | 55% | 1013 hPa | 1.78 mm | - | - | - |
| 1788547056 | 32.78° C | 55% | 1013 hPa | 1.78 mm | - | - | - |
| 1788546095 | 32.78° C | 55% | 1013 hPa | 1.78 mm | - | - | - |
* Rain latest hour (hover to see other rain measurements)
** Current wind speed in m/s (hover to see current wind gust speed)